Temperature
29 29 29 30 30 30 30 30 30 32 33 31 30 30 31 32 31 30 29 27 25 24 22 21 21 21 20 20 20 20 19 19 19 19 19 19 19 19 19 19 19 19 19 19
30 29 30 30 30 30 30 30 30 31 32 31 30 30 31 31 31 29 28 27 25 23 22 21 20 20 20 20 20 19 19 19 19 19 18 19 19 19 19 19 19 19 19 19
29 29 30 29 29 29 29 29 29 29 29 29 29 29 30 31 30 27 26 25 25 24 23 22 22 21 21 21 20 20 19 19 19 18 18 18 18 18 18 18 19 19 19 19
29 30 29 29 29 29 28 29 29 28 27 27 28 27 29 30 28 27 26 25 25 24 24 23 23 22 21 21 20 20 19 18 18 17 17 17 17 17 17 18 18 18 18 18
29 29 29 28 29 29 28 29 28 28 27 27 28 27 29 29 26 26 26 25 25 25 24 24 23 22 21 21 20 19 19 18 17 17 16 16 16 16 17 17 17 17 17 17
29 30 29 29 29 29 29 28 28 28 28 26 27 26 27 28 27 26 26 26 25 25 24 24 23 22 21 20 20 19 18 17 17 16 16 16 16 16 16 16 16 16 17 17
27 28 29 29 28 29 28 26 25 26 26 26 25 25 27 28 28 28 27 26 25 25 25 24 23 22 21 20 19 18 17 17 16 16 16 16 16 16 16 16 16 16 16 16
26 26 28 29 28 27 27 26 25 24 25 26 27 27 29 29 28 27 27 26 26 25 25 24 23 22 21 20 19 18 17 16 16 15 15 15 15 15 15 15 15 15 15 16
26 26 29 29 29 28 27 27 28 26 25 25 27 28 28 28 27 27 27 26 26 25 25 24 24 23 21 20 19 17 16 15 15 15 15 15 14 14 14 14 15 15 15 15
28 26 28 29 29 28 28 27 26 25 24 24 25 26 26 26 26 27 27 26 26 26 25 24 23 22 21 19 18 17 15 15 15 14 14 14 14 13 14 14 14 14 14 14
28 26 27 28 28 27 27 27 26 26 25 23 23 25 28 27 27 27 27 26 25 25 24 24 23 21 20 19 18 16 15 15 14 14 14 13 13 13 13 13 13 13 13 13
28 27 26 27 28 28 28 27 26 24 24 24 24 25 28 27 27 27 26 26 25 24 23 23 22 21 20 19 18 16 15 15 14 14 13 13 13 12 12 12 12 12 12 12
26 24 23 25 26 27 27 27 27 26 25 25 24 25 28 28 27 27 26 25 24 24 23 23 22 21 20 19 17 16 16 15 14 13 13 13 12 12 12 12 12 12 12 12
26 24 23 23 24 26 26 27 27 27 25 25 25 26 27 27 26 26 25 24 24 23 23 22 21 20 19 18 17 16 15 15 14 14 13 12 12 12 12 11 11 11 11 11
26 24 25 25 26 26 27 27 27 26 26 25 25 25 26 26 25 25 24 23 23 23 22 22 21 20 19 18 17 16 15 15 14 14 13 13 12 12 12 12 12 11 11 11
26 24 24 24 26 26 27 27 27 27 26 26 25 25 26 25 24 23 22 22 22 22 22 22 21 20 19 18 17 16 16 15 14 14 13 13 12 12 12 12 12 11 11 11
25 24 23 23 25 25 25 27 26 26 26 25 24 24 24 23 22 22 21 21 22 22 21 21 21 20 19 18 17 16 15 15 14 14 13 13 13 12 12 12 12 11 11 11
25 23 22 23 23 23 26 27 26 26 25 23 23 22 22 21 20 21 21 20 20 20 20 20 20 20 19 18 17 16 16 15 14 14 13 13 13 12 12 12 12 12 11 11
25 23 22 22 23 24 25 24 24 23 22 19 19 19 19 19 19 20 19 18 18 19 19 19 20 19 19 18 17 17 16 15 14 14 14 13 13 13 12 12 12 12 12 12
25 23 22 22 21 20 21 22 22 22 21 17 17 17 17 17 17 17 17 17 17 17 17 18 19 19 19 18 17 16 16 15 14 14 14 13 13 13 13 12 12 12 12 12
24 23 22 21 20 21 17 19 20 18 14 13 13 13 13 14 14 14 15 15 15 15 16 17 17 18 18 18 17 16 16 15 15 14 14 13 13 13 13 13 12 12 12 12
24 23 22 21 20 18 14 15 13 11 10 10 10 10 10 10 11 11 12 13 13 14 14 14 15 15 17 17 16 16 15 15 15 14 14 13 13 13 12 12 12 12 12 11
21 20 21 19 15 11 10 10 9 9 9 8 8 9 9 9 9 9 10 11 11 12 12 12 13 13 14 15 15 15 15 14 14 14 14 13 13 13 12 12 12 12 12 11
19 18 19 17 13 12 10 9 9 8 8 8 9 9 9 9 9 9 9 9 10 11 11 11 11 11 12 13 14 14 14 14 14 13 13 13 13 12 12 12 12 12 11 11
14 15 15 13 10 10 10 9 8 8 9 9 9 10 10 10 10 10 10 10 10 10 10 10 10 10 11 12 12 13 14 13 13 13 13 13 12 12 12 12 12 12 12 12
12 12 12 10 9 9 8 8 8 8 9 9 10 10 11 10 10 10 10 10 10 10 10 10 10 10 10 10 11 11 13 13 13 13 13 12 12 12 12 12 11 11 12 12
Wind_Speed
10 10 11 4 6 10 12 13 14 12 3 3 8 13 17 16 7 6 3 2 1 1 3 1 2 3 2 3 3 3 4 5 5 5 5 6 7 7 8 9 9 7 7 6
7 10 5 6 6 9 11 11 12 12 9 10 12 16 17 19 15 5 2 1 2 3 4 4 4 3 2 2 3 4 4 4 5 5 5 5 7 7 7 7 9 8 8 7
9 3 4 5 9 9 10 11 12 14 17 17 20 22 22 22 8 9 5 3 1 4 5 6 5 2 1 1 3 5 4 4 6 6 6 7 6 7 9 9 8 9 10 9
8 3 1 7 12 10 9 11 13 13 16 17 19 19 18 6 13 10 7 7 6 3 3 2 1 2 4 4 4 4 4 5 5 6 8 9 10 10 10 9 8 9 10 11
7 4 5 9 11 10 9 13 15 17 18 20 20 17 16 3 13 9 7 7 6 4 2 2 3 3 4 5 6 6 6 5 6 7 9 10 12 11 10 9 10 9 9 10
7 6 7 8 9 8 8 11 17 19 18 18 12 13 9 4 11 14 11 8 5 4 5 4 4 3 3 4 5 6 7 7 8 9 10 10 12 12 13 13 12 10 8 8
7 8 6 6 8 7 7 10 10 11 7 4 3 8 6 7 9 9 8 6 3 4 5 4 4 4 4 5 5 4 6 7 8 10 10 11 11 11 11 11 11 10 9 8
6 6 5 4 5 7 7 8 9 10 12 15 13 10 2 9 7 5 2 3 5 6 6 4 3 4 3 4 4 4 6 7 9 11 10 9 9 7 7 8 8 8 7 7
6 7 6 5 3 5 7 8 10 11 14 16 11 8 4 8 3 1 4 6 7 7 7 7 6 3 4 5 4 4 5 6 8 9 8 7 6 5 6 6 6 5 5 5
7 12 13 8 7 9 9 9 7 7 9 12 13 12 5 3 4 5 5 8 9 9 10 9 5 5 5 4 2 1 2 4 5 6 6 5 5 6 6 7 8 7 6 5
13 14 15 13 12 12 10 11 10 10 10 12 16 12 11 10 8 8 9 9 10 12 14 9 5 4 4 3 3 2 2 2 3 3 3 4 5 6 6 7 8 8 8 9
10 11 12 14 14 14 12 10 11 11 13 15 17 17 11 7 9 10 10 10 9 10 10 8 6 4 4 4 4 4 3 3 2 2 2 3 3 4 5 6 7 8 8 8
7 7 11 11 8 5 8 11 13 13 13 14 17 14 8 10 14 13 12 10 9 9 9 7 5 4 5 4 4 5 5 4 4 4 3 2 2 3 4 5 5 6 7 7
4 9 12 14 16 17 17 18 18 17 15 18 19 21 18 16 14 13 11 10 12 10 9 7 4 4 3 3 4 5 5 5 6 5 5 3 1 1 2 3 3 3 4 4
4 9 12 16 19 20 21 21 19 18 18 19 19 19 16 14 14 12 12 13 15 14 12 8 5 3 3 4 5 6 6 6 6 5 6 5 4 2 1 2 1 1 1 1
6 11 15 19 20 21 21 18 16 14 13 13 15 15 15 14 13 13 14 16 17 16 13 9 6 4 4 4 5 6 5 5 6 6 6 6 6 4 3 2 2 2 2 1
11 13 16 18 19 19 16 12 9 9 11 12 15 15 16 14 15 15 15 17 19 15 11 9 7 5 4 5 5 5 5 5 6 6 6 7 7 6 4 3 3 3 3 3
9 8 8 14 17 17 12 11 12 10 9 15 15 16 17 18 18 15 14 14 14 15 13 11 9 7 6 6 7 7 7 6 6 6 7 8 9 8 5 3 4 4 4 4
5 5 8 11 15 15 12 12 11 9 6 19 18 19 21 22 21 18 18 20 18 17 14 11 10 9 7 6 7 7 7 7 7 7 7 9 10 9 7 5 5 4 5 5
8 8 8 11 15 15 9 15 13 9 6 20 21 21 22 22 17 17 22 23 22 21 17 14 12 9 7 7 7 7 8 8 8 7 8 10 11 11 10 7 6 5 6 5
7 9 12 13 13 5 13 16 13 6 10 20 21 21 21 18 16 20 24 24 22 20 20 19 16 9 7 8 8 9 9 8 8 7 8 10 12 12 11 9 6 6 6 6
13 13 10 8 10 4 19 12 8 8 13 17 18 19 20 21 23 25 26 25 25 24 22 20 18 15 9 8 10 11 10 8 7 7 8 10 11 12 13 11 9 7 7 7
7 9 6 5 5 8 13 11 9 10 12 13 15 17 18 20 21 23 24 25 24 23 22 20 18 17 15 10 9 12 11 8 7 7 8 9 11 11 10 12 12 9 8 7
8 12 8 5 9 7 13 13 12 12 13 15 15 16 16 16 18 19 20 22 23 22 21 19 19 18 16 15 12 12 11 9 9 8 8 9 10 10 10 11 11 11 11 9
8 9 7 6 8 9 12 14 15 16 17 18 19 19 19 20 21 20 17 17 17 19 18 17 16 17 16 16 16 14 13 11 10 9 9 10 10 10 10 11 9 10 9 9
7 8 6 5 7 8 13 14 16 17 19 21 23 24 23 23 24 23 19 16 16 17 17 18 18 19 17 14 15 16 13 13 12 10 10 10 10 10 10 10 7 6 4 8
Wind_Direction
225 240 261 317 351 331 319 314 318 313 353 327 294 287 289 290 257 235 233 142 131 107 99 71 287 288 270 292 298 278 275 286 285 279 275 271 271 272 274 275 271 269 263 248
246 257 295 23 337 301 291 294 291 291 323 319 299 286 279 272 260 205 185 161 178 166 166 190 219 240 262 300 318 305 297 312 302 286 286 274 274 272 266 260 265 261 259 255
280 62 21 305 266 262 283 298 308 322 325 312 298 284 274 260 190 131 151 174 191 165 169 177 188 179 248 320 313 308 334 314 304 307 296 283 275 265 262 254 247 241 241 240
283 263 266 284 283 284 283 313 329 312 298 289 287 290 289 256 147 154 157 157 152 148 154 144 66 29 336 333 323 332 318 292 284 284 280 281 280 275 273 273 265 253 242 240
289 309 285 275 285 305 305 316 306 288 278 276 274 274 280 210 151 150 159 165 164 170 220 255 278 295 311 325 332 327 314 307 297 282 275 273 273 272 274 275 272 263 254 244
300 297 281 284 298 302 303 298 286 271 261 263 299 314 305 79 145 157 169 178 182 229 249 246 257 281 310 321 319 319 332 331 323 307 293 280 275 276 278 280 281 279 267 249
280 273 263 267 284 288 286 296 304 311 300 263 292 283 284 134 131 150 164 174 214 267 279 281 300 307 300 298 298 317 333 334 325 314 305 297 289 284 280 281 282 281 274 259
300 309 267 265 301 306 282 273 287 314 318 318 305 289 325 115 111 115 150 236 267 279 278 284 286 271 292 308 325 348 352 337 329 322 317 314 312 307 305 304 296 288 279 267
308 306 309 278 252 285 283 279 308 313 298 293 298 322 81 101 92 197 246 258 267 283 297 290 282 321 354 350 359 356 348 339 333 331 333 339 353 357 348 339 326 315 304 287
293 297 299 289 216 226 242 285 307 299 299 302 307 316 12 40 281 258 288 307 298 298 308 310 340 351 350 344 332 309 327 328 331 337 342 2 13 17 15 16 13 4 358 353
319 306 295 288 274 273 259 248 263 282 290 297 299 299 314 334 325 312 317 319 322 327 328 324 334 331 327 316 282 227 245 273 306 331 350 3 11 18 19 20 17 17 19 20
318 313 308 300 295 289 280 274 286 285 283 282 285 290 305 346 329 321 321 325 335 336 325 316 312 318 317 299 276 251 237 242 242 263 307 344 1 13 20 23 19 16 18 16
344 325 309 303 312 291 280 280 278 277 278 277 279 285 297 312 311 316 322 329 331 325 320 312 303 297 297 285 272 266 251 237 227 226 244 272 327 20 28 27 25 16 10 7
273 279 278 285 297 305 295 287 286 286 284 286 288 297 308 315 319 324 333 338 328 322 315 303 281 272 287 280 266 263 260 241 234 222 230 235 243 46 64 57 43 18 355 350
269 284 290 293 297 295 291 289 290 289 287 288 294 302 320 344 348 351 348 341 331 323 312 299 279 267 263 261 254 256 247 240 239 232 230 218 199 188 153 122 127 138 313 3
305 293 295 291 292 293 293 290 290 293 300 307 318 325 343 349 354 358 352 338 325 314 310 308 304 290 263 247 251 252 242 234 231 235 229 204 191 190 175 165 164 152 157 152
278 287 292 290 297 299 295 303 308 305 313 329 331 340 354 357 358 352 340 324 318 316 320 319 308 289 253 234 232 235 234 230 230 232 222 195 188 188 186 190 158 148 149 133
258 282 286 285 290 285 290 353 348 331 357 6 360 2 357 349 342 331 329 339 342 331 320 311 302 291 262 230 219 218 223 224 228 225 210 194 186 184 185 180 154 159 132 107
188 239 279 287 289 295 326 17 9 349 359 28 4 353 348 342 331 326 340 338 327 317 304 287 275 268 260 241 228 222 216 218 227 225 204 191 185 182 181 180 169 153 130 129
188 203 244 272 287 294 346 359 351 316 290 15 1 354 350 347 335 328 332 328 327 326 317 301 280 258 238 228 222 223 222 215 219 217 195 185 184 183 184 182 176 160 146 156
269 247 246 260 267 259 19 2 354 333 345 358 359 355 350 343 329 325 330 330 329 328 329 331 319 278 233 215 208 217 226 224 216 207 187 181 184 186 185 181 180 168 165 165
302 298 297 302 293 308 15 30 39 0 349 354 354 352 346 337 333 333 330 328 328 330 331 335 335 322 276 223 209 214 220 221 215 204 187 181 181 191 190 183 183 179 174 161
7 8 343 23 66 82 52 57 34 8 354 348 343 340 337 332 331 329 327 324 324 326 327 331 332 330 315 271 224 219 216 211 217 207 188 179 185 198 184 181 185 181 179 176
11 4 351 59 75 75 53 31 12 356 339 329 324 319 316 312 311 312 313 314 315 318 321 325 328 327 327 315 267 230 218 208 212 209 186 178 183 186 181 183 186 187 186 186
13 7 6 33 8 352 5 358 343 331 324 317 311 306 302 300 299 299 296 297 302 308 312 315 317 321 321 325 307 258 222 211 210 205 187 181 181 179 178 183 186 192 191 191
36 26 15 5 359 327 318 316 310 305 302 301 301 304 307 310 308 308 306 304 303 304 308 311 314 315 318 317 318 295 244 214 207 204 191 188 183 178 176 172 153 63 119 166
Height
1494 1496 1493 1487 1487 1488 1486 1484 1483 1475 1469 1478 1485 1486 1479 1475 1476 1480 1486 1491 1496 1499 1501 1503 1503 1503 1503 1503 1503 1502 1502 1502 1502 1503 1503 1502 1502 1502 1502 1502 1502 1502 1502 1502
1491 1494 1486 1487 1489 1490 1488 1489 1486 1477 1472 1478 1483 1483 1477 1474 1473 1477 1484 1489 1495 1498 1500 1502 1503 1503 1503 1503 1502 1501 1501 1500 1499 1499 1499 1498 1497 1497 1496 1496 1495 1495 1496 1496
1492 1492 1490 1492 1491 1491 1489 1490 1488 1488 1484 1483 1487 1484 1472 1463 1468 1478 1484 1490 1494 1497 1499 1501 1502 1503 1503 1502 1502 1501 1499 1498 1497 1496 1494 1493 1492 1491 1490 1489 1489 1488 1488 1488
1491 1486 1491 1493 1491 1488 1495 1487 1489 1492 1497 1496 1489 1493 1473 1462 1470 1478 1484 1489 1493 1496 1498 1500 1501 1502 1502 1502 1501 1499 1497 1495 1493 1492 1490 1489 1487 1485 1484 1484 1482 1482 1481 1481
1493 1489 1491 1494 1491 1488 1491 1489 1491 1492 1493 1493 1485 1487 1472 1459 1474 1481 1487 1489 1492 1494 1497 1498 1500 1500 1500 1500 1498 1497 1495 1492 1490 1488 1486 1484 1481 1479 1477 1476 1475 1474 1473 1472
1492 1490 1490 1489 1487 1487 1489 1492 1490 1485 1485 1497 1489 1491 1481 1470 1473 1480 1484 1488 1491 1493 1494 1496 1497 1497 1497 1496 1495 1494 1491 1489 1486 1484 1481 1478 1475 1473 1471 1469 1467 1466 1465 1464
1498 1491 1487 1488 1490 1489 1492 1502 1508 1502 1494 1497 1492 1492 1480 1469 1467 1473 1479 1484 1488 1490 1491 1492 1493 1494 1493 1493 1491 1490 1487 1484 1481 1478 1475 1472 1469 1466 1464 1462 1460 1459 1458 1457
1505 1505 1490 1486 1490 1494 1494 1499 1514 1520 1513 1498 1485 1481 1467 1464 1469 1474 1479 1482 1485 1487 1488 1488 1489 1489 1489 1489 1487 1485 1482 1480 1477 1473 1470 1466 1462 1460 1457 1455 1454 1452 1451 1450
1504 1502 1486 1485 1487 1491 1495 1494 1489 1499 1501 1502 1486 1473 1467 1470 1473 1476 1478 1480 1481 1483 1484 1484 1485 1485 1485 1485 1484 1481 1479 1476 1473 1470 1465 1461 1458 1455 1453 1451 1449 1447 1445 1444
1493 1500 1488 1482 1483 1485 1489 1490 1496 1505 1515 1514 1498 1487 1484 1478 1476 1474 1475 1476 1478 1479 1480 1480 1481 1481 1482 1481 1480 1478 1476 1474 1470 1467 1463 1460 1457 1454 1451 1448 1446 1444 1442 1441
1491 1498 1493 1485 1485 1487 1487 1491 1493 1495 1499 1513 1515 1499 1471 1472 1472 1472 1473 1474 1475 1476 1477 1477 1477 1478 1478 1478 1477 1475 1473 1471 1468 1465 1462 1459 1456 1453 1451 1448 1446 1443 1442 1440
1493 1495 1498 1489 1479 1477 1479 1484 1489 1502 1503 1498 1503 1495 1468 1470 1470 1470 1471 1472 1474 1475 1475 1474 1474 1474 1475 1475 1474 1473 1471 1469 1466 1464 1461 1459 1456 1454 1451 1449 1446 1445 1443 1441
1498 1506 1512 1499 1489 1482 1484 1483 1482 1484 1488 1493 1498 1489 1465 1466 1467 1468 1469 1470 1471 1471 1471 1471 1471 1471 1471 1471 1470 1470 1468 1467 1465 1462 1460 1459 1457 1454 1452 1449 1448 1446 1445 1444
1497 1503 1511 1514 1502 1489 1486 1480 1476 1479 1486 1486 1482 1475 1466 1464 1464 1465 1466 1468 1468 1468 1468 1467 1466 1467 1467 1467 1466 1466 1465 1464 1462 1460 1459 1457 1456 1454 1452 1451 1449 1448 1447 1446
1494 1500 1497 1493 1487 1482 1479 1475 1472 1473 1474 1478 1474 1471 1466 1465 1466 1467 1467 1468 1467 1466 1465 1463 1462 1462 1462 1462 1462 1462 1461 1460 1459 1458 1456 1455 1454 1454 1453 1452 1451 1450 1450 1449
1491 1497 1497 1494 1484 1477 1472 1466 1465 1466 1466 1467 1468 1470 1466 1467 1468 1469 1469 1469 1467 1464 1462 1460 1459 1459 1458 1458 1458 1457 1457 1456 1455 1454 1453 1452 1452 1452 1452 1452 1452 1452 1452 1452
1493 1497 1500 1496 1483 1479 1479 1466 1465 1466 1467 1471 1475 1474 1470 1471 1472 1472 1471 1469 1465 1462 1460 1458 1457 1456 1454 1454 1453 1452 1452 1452 1452 1451 1450 1449 1450 1451 1451 1452 1453 1453 1454 1455
1490 1497 1500 1496 1492 1497 1475 1461 1462 1465 1469 1474 1475 1476 1477 1477 1476 1474 1471 1469 1466 1463 1459 1457 1454 1452 1450 1449 1448 1448 1447 1448 1448 1447 1447 1447 1447 1449 1450 1451 1453 1454 1456 1457
1486 1495 1499 1497 1494 1483 1470 1470 1472 1476 1480 1487 1485 1484 1482 1479 1475 1472 1471 1469 1466 1462 1457 1453 1449 1447 1445 1444 1444 1443 1443 1443 1443 1444 1443 1444 1445 1446 1448 1450 1452 1454 1456 1458
1483 1490 1497 1496 1502 1502 1490 1480 1478 1479 1482 1494 1491 1489 1486 1480 1479 1476 1474 1470 1464 1458 1453 1448 1443 1440 1438 1438 1438 1438 1438 1438 1438 1439 1440 1440 1442 1444 1446 1448 1451 1453 1456 1458
1485 1488 1492 1494 1496 1487 1501 1490 1485 1493 1506 1502 1498 1495 1492 1489 1487 1481 1474 1468 1463 1456 1449 1443 1438 1434 1431 1431 1431 1431 1432 1432 1433 1434 1435 1436 1438 1440 1443 1446 1449 1452 1455 1458
1484 1486 1487 1487 1492 1498 1506 1500 1508 1516 1513 1508 1504 1500 1496 1492 1485 1478 1472 1466 1460 1453 1446 1440 1434 1429 1426 1424 1423 1423 1424 1426 1428 1429 1430 1432 1434 1437 1440 1443 1446 1450 1453 1456
1489 1494 1488 1494 1509 1518 1515 1516 1519 1517 1513 1509 1504 1499 1495 1489 1483 1476 1470 1464 1458 1452 1445 1438 1431 1425 1422 1418 1416 1416 1417 1420 1422 1423 1424 1427 1429 1433 1436 1439 1442 1446 1450 1453
1493 1497 1494 1501 1513 1515 1516 1516 1516 1514 1510 1506 1501 1495 1489 1483 1477 1471 1465 1459 1454 1448 1442 1435 1428 1422 1416 1411 1409 1411 1412 1414 1415 1417 1419 1421 1424 1428 1431 1435 1438 1442 1445 1449
1508 1506 1506 1510 1516 1514 1513 1513 1511 1508 1504 1499 1494 1489 1483 1477 1470 1464 1458 1453 1448 1443 1437 1432 1425 1418 1412 1407 1403 1405 1406 1407 1409 1411 1413 1415 1419 1423 1426 1430 1434 1438 1441 1445
1516 1518 1518 1520 1522 1521 1516 1511 1507 1502 1497 1492 1486 1480 1475 1471 1465 1459 1454 1449 1444 1438 1432 1427 1421 1414 1408 1403 1398 1397 1398 1400 1402 1405 1407 1409 1413 1417 1422 1426 1430 1434 1438 1442